Dewpoint
15 13 15 17 18 18 19 17 16 17 17 14 12 14 15 15 16 15 14 13 12 12 10 9 9 6 6 8 7 8 8 10 8 8 9 10 10 12 14 15 11 10 11 12 11 8 4 8 9
15 16 17 17 19 19 18 15 18 17 16 15 15 15 15 16 16 15 14 13 11 11 10 9 10 6 7 9 7 7 10 14 9 10 11 11 11 11 11 11 11 11 11 12 13 13 10 5 13
15 16 17 17 18 19 19 16 16 15 16 15 15 15 16 16 16 15 13 12 10 10 9 10 9 7 8 7 8 7 9 9 8 9 11 10 10 11 11 12 12 12 12 13 12 10 12 8 11
16 17 17 18 18 17 18 16 15 15 15 15 15 16 14 15 14 14 12 10 9 9 11 12 8 7 7 7 7 6 7 9 9 10 15 10 12 12 12 12 11 11 11 11 11 11 11 11 13
17 17 18 18 18 16 16 16 15 15 15 15 15 16 15 15 14 12 12 10 9 12 12 12 8 7 6 6 7 7 7 9 10 9 11 11 12 12 12 11 11 10 11 11 11 11 11 11 13
16 15 17 18 17 16 15 15 15 15 15 15 15 15 13 14 13 12 11 11 11 12 11 11 11 10 6 6 7 8 7 10 10 10 11 11 12 12 12 11 11 11 11 11 11 11 11 12 12
14 16 16 17 17 17 16 16 16 15 15 15 15 13 14 13 11 12 13 13 13 11 11 10 12 8 6 6 7 9 8 10 10 11 10 11 12 13 11 11 10 10 10 9 10 11 12 12 13
13 15 17 17 17 17 14 16 16 15 15 15 13 13 12 13 10 15 15 16 16 14 11 10 8 7 6 6 7 9 9 11 10 10 10 10 12 12 12 11 10 10 10 11 7 9 11 13 13
14 15 18 16 16 14 14 15 15 15 15 15 15 13 12 11 10 15 16 15 15 13 11 10 7 6 5 6 8 9 10 11 11 10 11 10 10 12 12 12 11 10 10 12 13 12 10 13 14
16 17 16 14 13 14 13 14 15 15 15 15 14 12 12 9 10 14 16 16 16 14 12 9 6 5 5 6 9 9 11 11 10 12 14 12 10 10 11 11 12 12 11 12 14 14 13 12 13
16 16 14 12 13 11 10 15 15 15 16 15 15 15 15 12 12 15 16 16 16 13 12 8 5 5 4 6 8 11 12 11 10 12 13 14 11 10 11 11 13 14 13 12 13 13 12 14 14
14 15 13 11 11 12 10 11 15 15 15 15 14 15 15 13 15 14 15 16 15 14 11 7 5 5 4 6 7 13 14 13 12 12 12 11 14 14 13 14 14 14 14 13 14 12 11 13 13
11 11 12 11 10 9 9 10 14 15 15 15 15 15 15 14 15 15 15 15 15 14 9 5 5 5 4 5 9 13 13 14 14 13 12 10 13 14 14 14 14 14 13 14 13 13 10 11 12
10 10 10 9 8 9 9 11 14 15 16 15 15 15 15 15 14 14 15 15 14 13 12 5 6 6 5 11 12 13 13 14 15 14 12 14 14 14 13 14 14 15 14 13 12 11 12 11 12
7 10 10 9 8 9 9 11 16 15 15 15 16 15 15 15 13 14 15 14 14 13 11 8 9 9 11 11 13 13 14 14 14 14 13 13 13 13 13 14 14 13 14 13 12 12 10 9 9
6 8 12 10 9 9 9 13 15 15 15 15 15 15 15 15 14 14 14 15 14 13 11 11 11 10 12 13 13 14 15 13 13 14 13 13 13 12 14 14 15 14 14 15 13 12 11 9 11
4 8 9 11 9 9 9 12 15 15 15 15 15 15 15 15 14 14 14 14 14 13 12 12 13 12 12 12 12 14 14 14 14 13 13 13 13 12 12 14 15 13 14 13 13 13 12 11 11
6 9 8 8 6 9 10 13 15 15 15 15 15 14 15 15 14 14 13 13 14 13 13 12 13 13 12 12 11 13 14 13 14 14 14 13 13 11 12 13 15 14 14 14 13 14 12 12 11
4 6 8 6 4 5 8 13 15 14 14 15 15 15 15 15 14 14 13 13 14 14 14 13 12 13 12 12 12 12 14 13 13 14 15 14 13 13 12 14 13 14 13 14 14 13 12 11 10
1 2 7 6 5 3 5 13 13 13 14 14 15 15 15 15 14 14 14 13 13 14 14 13 12 13 13 13 12 10 13 12 13 14 15 14 13 13 13 12 15 14 14 15 13 12 12 11 10
0 1 2 7 5 2 4 10 13 12 13 13 14 14 14 14 14 15 14 13 13 13 13 13 12 12 12 12 12 10 9 11 12 13 14 14 14 13 13 12 14 15 15 15 14 12 12 9 10
0 -2 -0 3 5 8 1 8 14 14 14 13 13 14 14 14 14 14 14 14 13 13 13 13 13 12 12 12 12 12 8 8 9 11 13 14 14 14 13 13 12 14 16 15 15 12 12 10 10
-1 -2 -1 2 4 5 5 5 10 14 15 13 12 12 13 14 14 13 14 14 14 14 13 11 13 12 12 12 13 11 11 8 10 12 14 14 13 14 13 13 13 14 14 15 15 10 13 12 10
-0 1 1 2 2 6 5 3 4 15 14 13 12 11 11 12 13 13 13 13 14 14 14 13 13 12 12 13 13 12 11 11 11 14 14 15 13 12 13 14 12 14 14 14 14 14 11 13 10
2 3 6 6 4 5 2 1 1 7 12 12 12 12 12 11 12 13 13 12 13 13 13 14 13 13 13 13 13 13 11 12 10 12 14 15 14 13 13 14 15 14 14 12 13 15 13 12 11
3 2 5 7 4 3 -3 -0 -1 -3 3 9 11 13 12 11 12 12 13 12 12 12 12 13 13 13 13 13 13 13 12 12 11 11 12 14 14 13 13 14 15 15 14 13 12 15 15 14 10
3 4 -2 -4 -4 -2 -3 -5 -7 -7 -7 -1 7 11 11 11 12 12 12 12 13 12 12 12 13 13 13 13 13 13 13 12 11 10 12 12 13 14 14 14 14 15 15 14 13 12 12 14 11
-2 -3 -0 -3 -0 -0 -2 -4 -2 -6 -7 -8 -2 8 9 11 12 11 12 13 12 12 12 12 12 12 12 13 13 13 13 12 11 11 11 12 12 13 13 14 14 15 15 14 14 12 11 13 13
2 -2 -4 -4 -3 -1 -1 -2 -8 -6 -6 -7 -6 5 9 11 11 11 11 12 12 12 12 12 12 12 12 12 12 12 13 14 13 13 11 11 11 13 14 14 14 15 15 15 15 14 14 11 12
2 -2 -5 -3 -3 -3 -2 -4 -4 -6 -7 -8 -9 -3 9 10 11 11 11 12 12 13 13 12 12 12 12 11 12 12 13 14 14 12 11 10 11 11 13 14 15 16 16 15 15 14 14 13 11
Wind_Speed
6 14 12 5 2 2 2 2 1 5 4 9 24 3 6 9 1 3 31 35 33 32 30 27 24 25 23 21 20 20 19 19 19 19 19 20 18 17 17 17 16 16 17 16 16 17 17 17 19
10 11 6 1 2 1 2 3 11 15 9 15 8 10 6 5 7 24 40 35 34 33 31 27 24 24 23 21 20 18 18 18 18 18 19 19 18 17 17 17 16 15 15 14 14 15 15 17 19
9 7 0 2 3 2 2 9 11 18 15 17 6 9 5 4 17 43 40 38 36 32 30 27 24 24 22 20 18 17 17 17 17 18 18 18 18 18 18 18 17 16 15 15 15 16 15 16 17
10 4 4 2 2 5 3 1 12 21 21 5 16 9 7 6 42 32 43 37 35 31 29 26 25 23 22 19 18 16 17 17 17 17 17 17 19 20 20 19 19 18 18 17 16 15 15 17 18
7 4 1 1 4 5 6 15 17 15 7 11 4 9 17 11 22 43 40 36 35 31 28 26 23 22 20 18 17 16 16 16 16 17 17 18 19 20 20 20 19 18 17 16 16 16 16 17 16
3 0 2 3 8 11 10 15 11 9 13 16 17 14 5 15 39 44 36 35 32 29 26 26 23 21 19 18 16 15 16 16 16 16 17 17 19 19 18 18 18 16 15 15 15 14 16 17 15
5 1 1 1 3 1 7 13 5 12 16 10 21 6 16 25 43 40 35 31 27 26 25 26 23 21 19 17 16 15 16 17 17 16 17 17 18 17 16 16 16 15 14 14 13 12 14 16 17
6 3 2 2 6 6 7 12 26 16 6 20 25 8 14 41 45 39 32 29 26 25 24 25 23 21 19 17 15 15 16 16 17 17 17 17 17 17 16 15 13 13 13 14 13 11 12 15 16
4 1 2 4 9 1 6 7 21 8 22 5 6 19 37 51 45 37 30 26 26 26 25 24 23 21 19 17 15 16 16 16 15 16 16 16 17 17 16 14 11 11 11 10 10 9 9 11 13
3 2 7 8 6 13 3 2 12 11 15 16 25 38 42 49 44 38 34 31 29 27 27 25 23 21 19 18 17 16 15 13 12 11 11 13 14 15 15 14 11 9 8 9 10 10 6 6 9
12 6 7 8 14 7 4 16 7 23 8 33 42 42 43 43 44 41 37 31 30 25 27 26 24 21 20 19 18 17 15 15 15 13 12 12 11 12 15 13 13 10 5 7 6 6 10 11 8
8 20 12 9 16 14 8 21 16 13 10 34 51 52 48 48 44 44 41 34 31 27 28 27 25 22 20 19 18 17 16 13 13 11 8 8 9 10 11 10 8 6 9 7 8 8 10 10 11
14 16 22 18 20 13 9 16 13 11 24 36 39 42 45 44 41 37 40 31 33 28 27 28 25 23 23 21 19 17 14 12 12 9 8 10 10 11 10 8 9 9 5 6 5 5 9 7 11
9 24 15 13 11 4 11 1 13 22 37 39 39 39 39 41 41 39 34 34 36 30 27 29 27 24 26 20 20 16 12 10 9 8 8 9 10 9 8 8 7 6 6 5 6 12 9 13 11
26 14 11 21 25 5 17 6 12 38 39 39 36 36 36 37 42 43 39 35 35 32 29 30 27 24 25 21 21 14 7 10 7 10 6 4 5 6 7 7 6 8 9 10 9 10 13 12 10
7 11 12 17 13 14 19 10 16 38 41 37 36 35 36 35 44 44 41 36 37 35 34 31 29 26 25 23 22 16 11 14 10 10 7 2 2 5 6 5 7 6 6 7 6 7 13 13 10
3 8 8 17 20 12 12 6 23 33 35 35 38 39 36 34 40 42 46 41 41 39 36 36 34 30 29 26 24 22 21 15 11 10 8 5 3 6 7 7 8 6 7 7 6 8 7 6 6
5 5 6 10 14 24 21 10 25 39 38 40 41 43 41 39 44 47 45 44 39 43 36 39 39 34 32 28 25 25 25 21 16 11 13 9 5 8 8 6 10 10 8 7 6 5 5 8 6
6 8 10 9 11 9 24 20 27 38 35 35 39 40 43 43 44 47 45 45 45 42 39 44 44 40 35 35 31 30 28 28 24 15 13 14 10 7 8 9 10 11 10 6 7 7 9 9 8
13 10 13 14 15 6 5 26 28 25 33 44 40 40 42 39 46 47 47 46 49 48 45 44 47 43 37 31 27 33 33 31 28 21 15 15 14 12 9 12 10 13 10 8 7 10 13 10 12
14 14 14 9 10 5 4 11 23 25 28 26 32 44 46 49 48 52 50 48 51 50 49 47 48 44 39 32 27 28 32 33 30 29 24 19 15 14 11 10 14 12 10 7 6 13 10 10 16
16 18 17 15 6 7 5 5 18 21 21 18 33 38 45 45 44 49 51 53 53 53 51 49 48 45 41 35 30 28 33 34 34 30 29 23 18 17 13 11 15 13 12 9 8 12 11 12 16
18 11 14 18 5 2 16 2 14 28 21 26 24 37 41 46 50 47 53 56 55 55 55 53 50 48 44 39 34 31 31 33 28 27 23 22 23 19 15 14 16 15 14 11 11 13 15 14 18
9 11 9 10 3 9 20 7 7 22 29 28 26 39 38 43 47 49 54 51 55 58 57 59 54 51 47 41 37 34 34 31 31 28 26 25 24 21 18 14 18 16 16 14 14 13 17 14 14
15 7 7 7 7 10 13 6 12 19 30 37 34 50 43 43 49 47 48 51 54 57 55 57 56 53 48 43 39 37 36 32 32 31 29 27 26 24 22 20 17 19 17 16 16 16 15 15 16
13 11 6 13 5 11 5 8 6 15 26 45 52 58 50 44 52 50 54 56 53 60 57 57 56 53 50 46 42 38 38 35 34 33 31 30 27 24 21 21 19 16 18 18 18 17 14 16 17
13 17 12 6 3 3 4 5 4 11 11 12 39 39 41 46 51 52 51 57 56 61 63 60 58 55 52 48 43 40 38 38 37 35 34 32 31 26 23 23 22 20 18 20 18 20 17 16 16
17 9 8 4 7 5 6 5 6 9 14 8 12 36 47 49 52 52 52 57 59 65 62 58 59 56 51 49 45 42 39 39 39 36 34 33 31 29 26 24 23 20 19 19 19 18 19 20 19
6 16 6 6 6 7 4 9 9 10 13 13 12 38 50 51 54 56 56 60 65 62 62 58 59 55 52 48 45 43 42 41 43 41 37 33 32 31 30 27 23 24 22 22 23 21 19 23 23
21 7 10 9 10 4 5 11 5 11 16 18 24 33 46 58 59 56 57 58 56 54 57 60 57 55 51 43 42 43 42 40 42 44 41 37 35 34 31 31 30 22 24 26 27 26 24 24 26
Wind_Direction
147 149 147 140 227 229 271 266 293 128 173 185 163 211 126 48 31 155 149 153 150 145 146 144 137 132 128 122 115 109 106 101 99 100 98 97 100 106 107 108 112 111 109 107 101 97 91 99 101
160 151 152 274 222 262 228 251 151 198 230 173 139 113 45 86 99 137 146 156 149 148 147 143 138 133 130 124 116 113 107 103 101 101 100 100 101 103 106 107 109 112 108 101 95 95 96 99 108
172 186 159 122 253 264 252 198 203 207 171 152 124 75 64 89 137 143 150 153 150 149 147 144 140 135 132 127 121 114 110 105 105 106 103 102 102 104 105 104 104 102 98 95 90 86 97 104 115
164 210 243 232 304 248 246 81 195 146 154 165 128 80 60 206 140 153 151 152 149 148 148 144 143 139 133 132 120 116 111 108 111 111 105 105 104 103 102 97 94 92 90 90 87 84 93 117 113
158 244 307 54 322 282 337 284 186 161 119 131 127 82 115 129 156 150 150 153 150 147 149 146 147 141 137 132 123 117 116 116 115 111 107 109 105 102 99 96 92 90 93 91 91 87 95 124 123
134 259 51 21 337 316 313 276 263 123 108 120 102 102 105 151 152 149 149 155 150 148 149 148 149 144 140 135 127 118 122 118 114 114 112 114 110 106 100 94 91 91 90 88 85 90 99 124 128
130 117 80 246 252 207 271 277 231 154 139 133 132 91 136 152 153 148 151 154 152 156 153 154 153 148 145 141 128 123 125 119 118 120 120 120 118 110 102 96 95 94 86 79 93 98 99 117 124
142 97 252 2 329 307 229 222 180 145 113 133 138 150 162 160 154 150 151 153 160 166 162 162 158 153 150 143 132 129 129 127 126 127 127 127 125 118 107 100 98 100 97 85 82 89 95 111 123
199 71 204 208 212 61 105 200 166 133 138 154 165 153 155 156 156 153 154 161 165 168 171 169 160 158 152 145 136 135 136 135 134 127 124 124 127 121 113 108 99 96 99 94 87 76 92 109 114
184 181 223 191 212 117 181 254 136 132 144 119 111 138 148 158 162 161 164 170 167 169 175 173 167 164 157 150 140 139 139 136 134 136 138 132 130 128 122 119 112 97 97 98 94 91 121 117 120
187 216 218 233 242 261 253 156 123 140 153 154 144 149 158 165 165 167 168 176 173 172 179 177 173 170 161 153 146 142 138 125 118 130 122 135 127 131 124 124 118 108 107 104 107 109 96 100 156
234 232 242 235 260 271 190 162 160 199 185 168 158 155 160 164 168 170 173 179 180 179 184 180 177 174 164 157 150 142 141 136 116 107 108 163 138 137 131 130 129 126 124 102 103 125 111 88 105
235 242 231 243 247 241 183 178 165 151 145 148 150 156 162 171 172 176 178 187 183 183 184 185 179 178 164 154 156 152 145 140 125 122 123 140 140 143 123 149 111 124 123 139 109 126 139 139 105
225 235 255 278 219 229 174 302 127 143 146 147 155 164 167 174 176 178 180 187 191 190 187 184 183 178 162 154 163 156 164 165 160 146 126 135 134 134 133 124 105 114 112 124 104 120 131 134 115
250 263 204 211 248 178 171 152 156 154 154 156 162 168 174 179 182 184 184 190 193 193 189 184 183 181 173 163 165 179 194 203 188 176 158 117 136 162 161 120 128 92 116 116 117 129 110 124 115
231 235 216 213 228 252 189 165 165 160 157 161 169 172 178 189 190 188 187 192 198 195 192 187 185 184 178 175 181 183 187 182 185 180 195 215 240 230 143 166 148 146 129 143 134 135 133 133 133
232 244 232 216 210 213 183 148 163 167 165 166 174 178 185 192 197 197 194 195 202 200 201 197 194 191 186 188 188 188 190 182 182 201 210 232 285 224 188 167 175 152 157 140 143 154 159 165 145
203 203 218 230 222 224 203 176 161 174 173 175 182 181 185 192 200 196 198 198 201 200 205 206 201 198 196 200 197 192 197 193 192 194 216 215 232 219 205 184 183 180 181 157 160 152 139 166 182
241 214 247 267 238 211 194 156 171 180 182 182 185 184 187 191 202 206 204 202 200 205 209 207 205 201 200 203 206 201 199 196 199 198 197 210 223 224 213 200 183 192 186 196 200 196 176 150 168
231 246 250 273 269 195 200 170 175 178 188 188 185 189 188 193 200 207 211 207 207 209 210 207 206 204 204 207 213 210 205 202 204 205 211 209 218 232 230 217 216 212 208 202 216 184 179 174 179
222 227 245 230 284 298 222 162 179 197 183 191 193 192 190 189 197 202 209 206 205 209 207 207 205 207 207 211 211 209 213 213 212 210 213 217 219 232 241 227 206 205 203 197 215 189 180 179 174
222 226 240 251 247 250 185 230 185 177 194 207 204 196 196 195 195 203 201 209 204 210 211 209 209 209 211 213 213 209 207 207 208 208 214 221 222 228 242 237 217 215 214 212 213 194 182 180 184
224 226 232 247 221 259 270 207 196 179 193 204 211 212 197 197 193 200 199 210 211 208 211 211 213 212 214 217 219 218 214 212 210 206 206 219 223 227 238 242 222 223 224 218 205 193 190 194 206
201 214 247 250 191 242 251 169 242 184 189 208 208 219 209 197 196 199 200 200 205 209 211 212 212 214 217 220 222 225 221 216 212 210 212 218 222 227 230 233 221 222 224 220 206 204 198 202 201
215 152 228 247 226 231 241 175 234 188 204 197 197 214 216 201 197 199 197 195 200 205 208 208 210 214 217 221 226 229 225 221 216 213 213 213 219 223 223 226 223 219 221 222 216 210 203 213 211
212 190 163 216 204 232 196 209 237 232 194 210 207 204 205 204 199 199 199 198 199 209 209 209 211 214 218 221 227 230 228 222 221 219 219 219 220 224 224 229 231 232 223 226 226 221 215 216 214
202 212 184 134 228 150 239 255 253 236 243 176 198 204 211 200 199 202 201 200 200 209 213 214 214 216 219 222 225 228 229 226 224 223 222 223 226 226 228 231 236 234 227 225 229 231 228 216 216
203 154 190 183 217 249 263 233 213 210 245 215 177 190 200 204 202 203 202 200 203 211 214 216 218 217 219 221 224 227 229 229 227 225 222 221 222 225 228 228 231 229 227 223 229 238 237 233 224
190 206 193 155 154 198 246 260 222 220 232 243 199 187 192 196 198 201 199 200 206 208 211 216 218 218 219 221 226 228 229 229 231 228 226 225 224 222 227 228 229 233 234 233 230 239 244 240 236
223 196 188 206 215 192 170 258 182 201 230 228 239 185 188 192 196 198 196 198 199 201 209 215 219 218 220 221 225 227 229 230 230 230 229 226 226 224 225 230 230 231 236 237 235 237 243 245 241
Height
1513 1514 1516 1517 1521 1520 1517 1513 1506 1508 1507 1501 1506 1504 1506 1510 1512 1524 1523 1530 1535 1539 1544 1547 1550 1552 1554 1557 1558 1559 1560 1561 1562 1563 1564 1564 1565 1567 1568 1568 1569 1570 1571 1571 1572 1572 1571 1571 1571
1514 1516 1518 1516 1518 1521 1516 1506 1508 1498 1500 1501 1506 1505 1507 1514 1515 1519 1525 1533 1537 1541 1545 1549 1551 1553 1555 1558 1559 1560 1562 1563 1564 1565 1565 1566 1567 1568 1569 1569 1570 1571 1572 1573 1573 1573 1573 1573 1574
1514 1516 1517 1506 1516 1518 1512 1500 1499 1499 1502 1502 1505 1506 1508 1515 1516 1521 1527 1533 1538 1543 1547 1550 1553 1555 1557 1559 1561 1562 1563 1565 1565 1566 1567 1568 1569 1570 1571 1571 1572 1573 1574 1574 1574 1574 1575 1576 1576
1514 1517 1514 1517 1517 1507 1503 1497 1497 1499 1505 1504 1503 1509 1513 1515 1517 1523 1529 1535 1540 1545 1549 1552 1555 1556 1558 1560 1562 1564 1564 1566 1567 1568 1569 1570 1571 1572 1573 1574 1575 1575 1576 1576 1576 1576 1576 1577 1577
1514 1514 1515 1518 1514 1506 1502 1502 1502 1499 1498 1501 1502 1514 1517 1523 1524 1527 1533 1538 1542 1546 1550 1553 1556 1558 1560 1562 1563 1565 1566 1567 1568 1570 1571 1572 1573 1574 1575 1576 1577 1578 1578 1578 1578 1577 1577 1577 1578
1511 1511 1517 1522 1515 1504 1501 1498 1502 1497 1499 1501 1506 1510 1522 1524 1526 1532 1537 1541 1546 1548 1552 1555 1558 1560 1561 1563 1565 1566 1568 1569 1570 1571 1572 1574 1575 1576 1577 1578 1578 1579 1579 1580 1580 1579 1579 1579 1581
1509 1511 1517 1519 1518 1514 1501 1495 1499 1497 1498 1501 1501 1511 1522 1526 1532 1535 1539 1545 1548 1551 1553 1556 1559 1561 1563 1564 1566 1568 1570 1570 1571 1573 1573 1575 1575 1577 1579 1580 1581 1581 1581 1582 1582 1581 1581 1581 1583
1510 1511 1515 1510 1513 1512 1498 1501 1496 1496 1500 1502 1503 1510 1519 1523 1532 1538 1542 1546 1550 1553 1555 1557 1559 1562 1564 1565 1568 1570 1571 1572 1573 1574 1575 1576 1577 1578 1580 1581 1582 1583 1583 1584 1585 1585 1584 1584 1584
1509 1513 1514 1509 1509 1502 1497 1500 1500 1497 1500 1504 1506 1506 1513 1523 1533 1539 1543 1548 1551 1553 1556 1558 1560 1563 1565 1567 1569 1570 1572 1573 1574 1575 1577 1578 1579 1579 1580 1582 1584 1585 1586 1586 1587 1587 1587 1588 1587
1507 1511 1505 1495 1496 1498 1499 1500 1497 1499 1503 1507 1507 1512 1521 1527 1533 1538 1541 1544 1549 1552 1555 1558 1561 1563 1565 1567 1569 1571 1573 1574 1576 1577 1579 1580 1580 1580 1581 1583 1585 1586 1587 1587 1588 1588 1588 1589 1590
1502 1504 1494 1493 1488 1490 1493 1499 1501 1499 1507 1498 1501 1512 1521 1527 1533 1538 1542 1544 1547 1552 1555 1558 1561 1564 1566 1568 1570 1572 1574 1575 1576 1578 1579 1581 1582 1583 1583 1584 1586 1587 1588 1588 1589 1589 1589 1590 1590
1498 1491 1491 1489 1484 1487 1487 1489 1495 1494 1491 1497 1497 1505 1517 1526 1531 1536 1540 1544 1548 1551 1555 1559 1561 1564 1566 1569 1570 1573 1574 1575 1577 1579 1581 1582 1584 1584 1584 1585 1586 1588 1589 1589 1589 1589 1589 1590 1590
1492 1487 1487 1489 1488 1487 1485 1483 1485 1495 1496 1502 1510 1514 1519 1526 1531 1537 1541 1544 1548 1551 1554 1558 1561 1564 1567 1569 1571 1573 1575 1576 1578 1580 1582 1584 1584 1585 1585 1586 1587 1589 1589 1590 1590 1591 1591 1591 1591
1481 1484 1485 1482 1480 1480 1483 1488 1485 1499 1498 1504 1511 1517 1521 1525 1529 1535 1540 1543 1547 1551 1553 1557 1560 1564 1567 1569 1571 1573 1575 1576 1578 1580 1582 1584 1585 1585 1585 1587 1588 1589 1590 1590 1590 1591 1592 1592 1592
1480 1486 1480 1477 1473 1484 1487 1492 1495 1493 1499 1504 1511 1516 1523 1525 1529 1532 1537 1541 1545 1549 1552 1555 1559 1562 1565 1568 1570 1573 1574 1575 1577 1580 1582 1584 1585 1585 1586 1587 1589 1590 1591 1591 1592 1592 1592 1593 1593
1480 1481 1491 1475 1474 1475 1483 1495 1496 1496 1497 1504 1512 1517 1521 1523 1525 1531 1536 1541 1544 1547 1550 1554 1557 1560 1564 1567 1570 1571 1573 1574 1577 1579 1581 1583 1585 1585 1586 1587 1589 1590 1591 1592 1592 1594 1594 1594 1595
1480 1493 1485 1477 1470 1469 1481 1490 1493 1502 1501 1503 1508 1511 1518 1522 1524 1527 1532 1537 1541 1545 1548 1551 1555 1558 1562 1565 1569 1571 1573 1574 1576 1578 1580 1582 1583 1585 1587 1588 1589 1590 1591 1592 1593 1594 1595 1595 1596
1489 1487 1478 1477 1464 1464 1476 1482 1485 1493 1494 1495 1501 1503 1508 1514 1519 1522 1528 1533 1538 1542 1546 1550 1553 1556 1560 1563 1567 1570 1571 1574 1575 1577 1580 1582 1584 1585 1587 1588 1589 1590 1591 1592 1593 1594 1595 1595 1596
1472 1476 1477 1461 1454 1461 1463 1475 1482 1486 1492 1492 1496 1500 1501 1504 1512 1520 1524 1529 1535 1538 1541 1544 1548 1552 1556 1560 1563 1566 1568 1571 1574 1576 1579 1582 1584 1585 1586 1588 1589 1590 1591 1592 1593 1594 1595 1596 1596
1468 1474 1472 1460 1450 1459 1460 1473 1474 1478 1476 1477 1486 1491 1492 1501 1506 1513 1519 1524 1528 1532 1536 1540 1543 1548 1552 1556 1559 1562 1566 1569 1573 1575 1577 1580 1583 1584 1585 1587 1588 1589 1590 1591 1592 1594 1595 1595 1596
1463 1470 1467 1469 1453 1453 1456 1475 1479 1474 1478 1483 1483 1480 1481 1483 1493 1501 1511 1516 1522 1524 1528 1533 1538 1543 1547 1552 1556 1559 1564 1568 1570 1571 1574 1577 1580 1583 1585 1586 1588 1589 1589 1590 1592 1593 1595 1595 1595
1466 1450 1456 1460 1469 1485 1451 1486 1474 1472 1476 1478 1477 1475 1475 1480 1484 1491 1500 1508 1513 1517 1524 1528 1534 1539 1543 1547 1552 1554 1556 1559 1562 1567 1571 1575 1578 1580 1583 1584 1586 1587 1588 1589 1591 1593 1594 1594 1595
1446 1448 1453 1454 1467 1471 1459 1481 1468 1465 1475 1467 1469 1471 1469 1473 1476 1481 1487 1495 1502 1513 1517 1522 1528 1534 1538 1543 1547 1550 1553 1556 1561 1565 1569 1572 1575 1578 1580 1582 1584 1585 1586 1587 1590 1591 1592 1593 1594
1438 1447 1451 1452 1465 1486 1458 1471 1464 1462 1455 1454 1461 1461 1463 1466 1469 1475 1481 1490 1495 1503 1510 1517 1522 1527 1532 1537 1541 1545 1548 1552 1556 1560 1564 1568 1571 1574 1577 1580 1581 1582 1584 1586 1588 1589 1590 1592 1592
1438 1454 1482 1484 1482 1481 1448 1470 1449 1442 1438 1432 1441 1449 1451 1455 1459 1470 1478 1483 1489 1494 1500 1508 1514 1519 1525 1530 1535 1539 1543 1548 1551 1555 1559 1563 1567 1570 1573 1576 1578 1579 1581 1583 1586 1588 1589 1589 1591
1434 1445 1476 1489 1491 1470 1451 1466 1446 1418 1423 1425 1430 1425 1437 1446 1451 1460 1466 1475 1480 1486 1492 1499 1506 1512 1517 1523 1528 1533 1537 1543 1547 1551 1554 1558 1562 1567 1571 1573 1575 1577 1579 1581 1583 1585 1587 1588 1590
1424 1433 1434 1462 1460 1472 1451 1435 1422 1414 1411 1420 1424 1434 1439 1439 1447 1453 1461 1467 1474 1478 1484 1489 1497 1504 1510 1516 1522 1526 1531 1536 1540 1545 1550 1554 1558 1563 1567 1569 1571 1574 1576 1578 1580 1583 1585 1586 1588
1404 1414 1441 1453 1472 1475 1451 1441 1439 1418 1410 1408 1416 1421 1425 1435 1441 1445 1453 1460 1466 1470 1475 1482 1490 1496 1503 1510 1515 1520 1524 1529 1534 1540 1544 1549 1553 1557 1561 1564 1567 1570 1572 1575 1577 1579 1582 1583 1585
1407 1408 1415 1428 1453 1468 1470 1433 1397 1406 1402 1401 1402 1406 1412 1422 1432 1438 1443 1450 1455 1463 1470 1475 1483 1491 1496 1503 1509 1514 1519 1524 1528 1533 1538 1543 1548 1552 1555 1559 1562 1566 1568 1572 1574 1575 1577 1578 1580
1389 1406 1412 1426 1448 1447 1450 1421 1385 1390 1389 1389 1388 1396 1402 1408 1419 1429 1434 1441 1450 1458 1463 1469 1476 1483 1490 1496 1501 1506 1512 1517 1522 1526 1531 1537 1541 1546 1550 1554 1558 1561 1564 1566 1568 1569 1571 1573 1574